Regional Weather Roundup
Issued by NWS

Current Version | Previous Version | Text Only | Print | Product List | Glossary On
Versions: 1 2 3 4 5 6 7 8 9 10 11 12 13 14 15 16 17 18 19 20 21 22 23 24 25 26 27 28 29 30 31 32 33 34 35 36 37 38 39 40 41 42 43 44 45 46 47 48 49 50
000
ASUS43 KOAX 221810
RWRNE

WEATHER ROUNDUP FOR NEBRASKA
NATIONAL WEATHER SERVICE OMAHA NE
100 PM CDT THU OCT 22 2020

NOTES: SATELLITE DATA IS BEING USED TO AUGMENT CLOUD COVER ABOVE
       12000 FEET.
       "FAIR" INDICATES FEW OR NO CLOUDS BELOW 12,000 FEET WITH NO
       SIGNIFICANT WEATHER AND/OR OBSTRUCTIONS TO VISIBILITY.


NEZ001>004-019>022-054>056-221900-
NEBRASKA PANHANDLE

CITY           SKY/WX    TMP DP  RH WIND       PRES   REMARKS
SCOTTSBLUFF    CLOUDY    36  29  75 N13       30.05R WCI  27
6HR MIN TEMP:  31; 6HR MAX TEMP:  36;

ALLIANCE       CLOUDY    31  28  89 N17       30.02R FOG     WCI  19
6HR MIN TEMP:  29; 6HR MAX TEMP:  31;

CHADRON        CLOUDY    31  28  89 N15       30.10R WCI  20
6HR MIN TEMP:  29; 6HR MAX TEMP:  31; 6HR PCP: TRACE;

GORDON         CLOUDY    30  28  92 N14       30.06R WCI  19
6HR MIN TEMP:  29; 6HR MAX TEMP:  31;

KIMBALL        CLOUDY    33  32  94 N15       30.01R WCI  23
SIDNEY         CLOUDY    32  29  88 N21G28    29.98R WCI  20
6HR MIN TEMP:  31; 6HR MAX TEMP:  32; 6HR PCP: TRACE;

$$

NEZ057>060-069>072-079>082-221900-
SOUTHWEST NEBRASKA

CITY           SKY/WX    TMP DP  RH WIND       PRES   REMARKS
NORTH PLATTE   CLOUDY    40  36  86 N16       29.95R WCI  31
6HR MIN TEMP:  40; 6HR MAX TEMP:  43;

IMPERIAL       CLOUDY    39  37  92 NW21G29   29.95R WCI  29
6HR MIN TEMP:  39; 6HR MAX TEMP:  44;

LEXINGTON      CLOUDY    42  39  91 N14       29.92R
MCCOOK         CLOUDY    46  42  86 N15       29.90R
6HR MIN TEMP:  43; 6HR MAX TEMP:  46;

OGALLALA       CLOUDY    38  36  91 N17       29.98R WCI  28
$$

NEZ005>010-023>029-035>040-094-221900-
NORTH CENTRAL NEBRASKA

CITY           SKY/WX    TMP DP  RH WIND       PRES   REMARKS
VALENTINE      CLOUDY    34  30  85 N14       30.05R WCI  25
6HR MIN TEMP:  32; 6HR MAX TEMP:  35; 6HR PCP: TRACE;

AINSWORTH      CLOUDY    33  32  96 N15       30.02R FOG     WCI  23
BROKEN BOW     CLOUDY    37  35  92 N18G26    29.94R WCI  27
6HR MIN TEMP:  37; 6HR MAX TEMP:  42; 6HR PCP: TRACE;

O`NEILL        CLOUDY    34  32  94 N13G18    29.98S WCI  25
ORD            CLOUDY    36  33  89 N15       29.94R WCI  27
6HR MIN TEMP:  36; 6HR MAX TEMP:  41; 6HR PCP: TRACE;

THEDFORD       CLOUDY    34  33  98 N14       30.00R FOG     WCI  24
$$

NEZ041-046>049-061>064-073>077-083>087-221900-
SOUTH CENTRAL NEBRASKA

CITY           SKY/WX    TMP DP  RH WIND       PRES   REMARKS
GRAND ISLAND   CLOUDY    41  38  89 N16G23    29.90S FOG
6HR MIN TEMP:  39; 6HR MAX TEMP:  44; 6HR PCP: TRACE;

AURORA         CLOUDY    40  39  97 N16       29.89R WCI  32
HASTINGS       CLOUDY    40  38  93 N16       29.88R FOG     WCI  31
6HR MIN TEMP:  40; 6HR MAX TEMP:  45; 6HR PCP: TRACE;

HEBRON         CLOUDY    47  47  98 N10G17    29.83R FOG
HOLDREGE       CLOUDY    42  41  96 N16       29.88S
KEARNEY        CLOUDY    40  39  97 N23       29.89S WCI  30
YORK           PTSUNNY   41  39  93 N14G23    29.88R FOG
$$

NEZ011>018-030>034-042>045-221900-
NORTHEAST NEBRASKA

CITY           SKY/WX    TMP DP  RH WIND       PRES   REMARKS
NORFOLK        CLOUDY    38  34  85 N14       29.92R WCI  30
6HR MIN TEMP:  37; 6HR MAX TEMP:  40; 6HR PCP:  0.02;

ALBION         CLOUDY    37  36  96 N13       29.92S FOG     WCI  28
BLAIR          CLOUDY    43  43 100 N12G17    29.83S FOG
COLUMBUS       CLOUDY    39  38  96 N15       29.91R WCI  31
FREMONT        CLOUDY    40  38  93 N12G17    29.87R FOG     WCI  33
TEKAMAH        LGT RAIN  40  38  93 N14       29.87S FOG     WCI  32
6HR MIN TEMP:  39; 6HR MAX TEMP:  44; 6HR PCP: TRACE;

WAYNE          CLOUDY    37  36  94 N15       29.92S FOG     WCI  28
$$

NEZ050>053-065>068-078-088>093-221900-
SOUTHEAST NEBRASKA

CITY           SKY/WX    TMP DP  RH WIND       PRES   REMARKS
LINCOLN        CLOUDY    44  42  93 N16       29.85R FOG
6HR MIN TEMP:  44; 6HR MAX TEMP:  48;

OMAHA EPPLEY   DRIZZLE   47  46  97 N13       29.83S FOG
6HR MIN TEMP:  46; 6HR MAX TEMP:  47; 6HR PCP:  0.03;

BEATRICE       CLOUDY    50  49  96 N15       29.80R FOG
FALLS CITY     CLOUDY    76  64  66 S16G28    29.75F
6HR MIN TEMP:  50; 6HR MAX TEMP:  77;

NEBRASKA CITY  FOG       55  55 100 N12       29.79S VSB 1/2
PLATTSMOUTH    FOG       49  48  97 N7        29.81S VSB 1
$$

NEZ044-045-051>053-067-221900-
OMAHA AREA

CITY           SKY/WX    TMP DP  RH WIND       PRES   REMARKS
OMAHA EPPLEY   DRIZZLE   47  46  97 N13       29.83S FOG
6HR MIN TEMP:  46; 6HR MAX TEMP:  47; 6HR PCP:  0.03;

BLAIR          CLOUDY    43  43 100 N12G17    29.83S FOG
FREMONT        CLOUDY    40  38  93 N12G17    29.87R FOG     WCI  33
MILLARD        CLOUDY    48  46  90 N6        29.83R FOG
OFFUTT AFB     CLOUDY    48  47  94 N6        29.81S
PLATTSMOUTH    FOG       49  48  97 N7        29.81S VSB 1
WAHOO          DRIZZLE   42  42 100 N13       29.86R
$$




USA.gov is the U.S. government's official web portal to all federal, state and local government web resources and services.